• Currently

    Reported at Minneapolis, Minneapolis-St. Paul International Airport, MN
    6:53 PM CST WED APR 26 2017
  • 39°F4°C
  • Drizzle
    Drizzle
  • Feels Like:33°F0°CDew Point:32°F0°CHumidity:75% Winds:N 12 mph 19 kph
    Pressure:29.56 in1001 hPaVisibility:10.00 miles16090.00 meters
Time Weather Temp Dew Point
Humidity Winds Visibility Pressure Precipitation
1 hr 24 hr
Saturday, April 22
23:53 23:53 Mostly Clear Mostly Clear 51°F11°C 35°F2°C 54% CalmCalm 10.0 miles16.1 km 30.21 in1023 hPa 0.00 in0.00 mm --
22:53 22:53 Mostly Clear Mostly Clear 53°F12°C 35°F2°C 51% CalmCalm 10.0 miles16.1 km 30.21 in1023 hPa 0.00 in0.00 mm --
21:53 21:53 Mostly Clear Mostly Clear 54°F12°C 33°F1°C 45% CalmCalm 10.0 miles16.1 km 30.18 in1022 hPa 0.00 in0.00 mm --
20:53 20:53 Partly Cloudy Partly Cloudy 58°F14°C 31°F-1°C 36% N 5 mphN 7 kph 10.0 miles16.1 km 30.18 in1022 hPa 0.00 in0.00 mm --
19:53 19:53 Partly Cloudy Partly Cloudy 59°F15°C 31°F-1°C 35% NNE 8 mphNNE 13 kph 10.0 miles16.1 km 30.18 in1022 hPa 0.00 in0.00 mm --
18:53 18:53 Partly Cloudy Partly Cloudy 61°F16°C 33°F1°C 35% NE 7 mphNE 11 kph 10.0 miles16.1 km 30.18 in1022 hPa 0.00 in0.00 mm --
17:53 17:53 Mostly Cloudy Mostly Cloudy 62°F17°C 32°F0°C 32% NNE 12 mphNNE 19 kph 10.0 miles16.1 km 30.18 in1022 hPa 0.00 in0.00 mm --
16:53 16:53 Mostly Cloudy Mostly Cloudy 61°F16°C 31°F-1°C 32% NNW 8 mphNNW 13 kph 10.0 miles16.1 km 30.18 in1022 hPa 0.00 in0.00 mm --
15:53 15:53 Partly Cloudy Partly Cloudy 62°F17°C 30°F-1°C 30% N 3 mphN 6 kph 10.0 miles16.1 km 30.18 in1022 hPa 0.00 in0.00 mm --
14:53 14:53 Partly Cloudy Partly Cloudy 62°F17°C 32°F0°C 32% NNE 16 mphNNE 26 kph 10.0 miles16.1 km 30.18 in1022 hPa 0.00 in0.00 mm --
13:53 13:53 Mostly Sunny Mostly Sunny 60°F16°C 32°F0°C 35% NE 6 mphNE 9 kph 10.0 miles16.1 km 30.18 in1022 hPa 0.00 in0.00 mm --
12:53 12:53 Mostly Sunny Mostly Sunny 59°F15°C 35°F2°C 41% N 6 mphN 9 kph 10.0 miles16.1 km 30.18 in1022 hPa 0.00 in0.00 mm --
11:53 11:53 Mostly Sunny Mostly Sunny 57°F14°C 37°F3°C 47% ENE 8 mphENE 13 kph 10.0 miles16.1 km 30.18 in1022 hPa 0.00 in0.00 mm --
10:53 10:53 Mostly Sunny Mostly Sunny 55°F13°C 38°F3°C 53% ENE 13 mphENE 20 kph 10.0 miles16.1 km 30.18 in1022 hPa 0.00 in0.00 mm --
09:53 09:53 Sunny Sunny 52°F11°C 39°F4°C 61% CalmCalm 10.0 miles16.1 km 30.18 in1022 hPa 0.00 in0.00 mm --
08:53 08:53 Sunny Sunny 48°F9°C 40°F4°C 74% CalmCalm 10.0 miles16.1 km 30.18 in1022 hPa 0.00 in0.00 mm --
07:53 07:53 Sunny Sunny 44°F7°C 39°F4°C 83% N 7 mphN 11 kph 10.0 miles16.1 km 30.18 in1022 hPa 0.00 in0.00 mm --
06:53 06:53 Sunny Sunny 39°F4°C 37°F3°C 93% SW 5 mphSW 7 kph 10.0 miles16.1 km 30.18 in1022 hPa 0.00 in0.00 mm --
05:53 05:53 Clear Clear 38°F3°C 35°F2°C 89% N 3 mphN 6 kph 10.0 miles16.1 km 30.15 in1021 hPa 0.00 in0.00 mm --
04:53 04:53 Clear Clear 38°F3°C 35°F2°C 89% WNW 3 mphWNW 6 kph 10.0 miles16.1 km 30.15 in1021 hPa 0.00 in0.00 mm --
03:53 03:53 Mostly Clear Mostly Clear 38°F3°C 35°F2°C 89% W 3 mphW 6 kph 10.0 miles16.1 km 30.15 in1021 hPa 0.00 in0.00 mm --
02:53 02:53 Mostly Clear Mostly Clear 40°F4°C 36°F2°C 86% NW 3 mphNW 6 kph 10.0 miles16.1 km 30.12 in1020 hPa 0.00 in0.00 mm --
01:53 01:53 Clear Clear 40°F4°C 35°F2°C 83% NW 6 mphNW 9 kph 10.0 miles16.1 km 30.15 in1021 hPa 0.00 in0.00 mm --
00:53 00:53 Clear Clear 43°F6°C 36°F2°C 76% NNW 5 mphNNW 7 kph 10.0 miles16.1 km 30.12 in1020 hPa 0.00 in0.00 mm --